| time (UTC) | temp F | wind direction | speed knots | gust knots | rain 1hr in | rain 24hr in | rain mn in | humidity % | barometer mb |
| 20260505051556 | 63 | 90 | 0.0 | 0.0 | 0.00 | 0.00 | 0.00 | 75 | 1010.8 |
| 20260505041554 | 69 | 191 | 0.0 | 3.5 | 0.00 | 0.00 | 0.00 | 68 | 1010.1 |
| 20260505040029 | 70 | 191 | 0.0 | 0.0 | 0.00 | 0.00 | 0.00 | 67 | 1009.9 |
| 20260505034526 | 71 | 191 | 0.9 | 4.3 | 0.00 | 0.00 | 0.00 | 66 | 1009.7 |
| 20260505033006 | 71 | 240 | 0.0 | 2.6 | 0.00 | 0.00 | 0.00 | 66 | 1009.5 |
| 20260505031503 | 73 | 242 | 0.0 | 5.2 | 0.00 | 0.00 | 0.00 | 64 | 1009.1 |
| 20260505030043 | 73 | 235 | 0.0 | 1.7 | 0.00 | 0.00 | 0.00 | 65 | 1009.0 |
| 20260505024543 | 74 | 235 | 0.0 | 0.0 | 0.00 | 0.00 | 0.00 | 64 | 1008.9 |
| 20260505023026 | 74 | 235 | 0.0 | 2.6 | 0.00 | 0.00 | 0.00 | 64 | 1008.8 |
| 20260505021528 | 74 | 197 | 0.9 | 2.6 | 0.00 | 0.00 | 0.00 | 64 | 1008.8 |
| 20260505020002 | 75 | 246 | 0.0 | 3.5 | 0.00 | 0.00 | 0.00 | 63 | 1008.8 |
| 20260505014559 | 76 | 244 | 0.0 | 3.5 | 0.00 | 0.00 | 0.00 | 60 | 1008.8 |
| 20260505013058 | 77 | 246 | 0.0 | 7.0 | 0.00 | 0.02 | 0.00 | 58 | 1008.9 |
| 20260505011540 | 78 | 259 | 1.7 | 5.2 | 0.00 | 0.02 | 0.00 | 56 | 1008.9 |
| 20260505010021 | 78 | 215 | 0.0 | 5.2 | 0.00 | 0.02 | 0.00 | 57 | 1009.0 |
| 20260505004524 | 78 | 176 | 0.0 | 5.2 | 0.00 | 0.02 | 0.00 | 57 | 1009.2 |
| 20260505003007 | 77 | 250 | 0.0 | 6.1 | 0.00 | 0.02 | 0.00 | 58 | 1009.0 |
| 20260505001506 | 78 | 242 | 0.0 | 7.8 | 0.00 | 0.02 | 0.00 | 57 | 1009.2 |
| 20260505000007 | 78 | 221 | 2.6 | 7.8 | 0.00 | 0.02 | 0.00 | 55 | 1009.3 |
| 20260504234502 | 78 | 236 | 0.0 | 7.0 | 0.00 | 0.02 | 0.00 | 54 | 1009.3 |
| 20260504233107 | 77 | 240 | 0.0 | 5.2 | 0.00 | 0.02 | 0.00 | 56 | 1009.4 |
| 20260504231558 | 76 | 227 | 1.7 | 6.1 | 0.00 | 0.02 | 0.00 | 56 | 1009.6 |
| 20260504230103 | 76 | 240 | 0.0 | 6.1 | 0.00 | 0.02 | 0.00 | 56 | 1009.8 |
| 20260504224553 | 77 | 232 | 0.0 | 4.3 | 0.00 | 0.02 | 0.00 | 54 | 1009.9 |
| 20260504223038 | 76 | 282 | 0.9 | 4.3 | 0.00 | 0.02 | 0.02 | 57 | 1010.1 |
| 20260504221532 | 74 | 244 | 0.0 | 6.1 | 0.00 | 0.02 | 0.02 | 58 | 1010.4 |
| 20260504220020 | 75 | 271 | 1.7 | 6.1 | 0.00 | 0.02 | 0.02 | 58 | 1010.6 |
| 20260504214520 | 73 | 250 | 0.9 | 6.1 | 0.00 | 0.02 | 0.02 | 60 | 1010.7 |
| 20260504213113 | 73 | 188 | 2.6 | 7.0 | 0.00 | 0.02 | 0.02 | 60 | 1010.8 |
| 20260504211556 | 72 | 218 | 0.0 | 4.3 | 0.00 | 0.02 | 0.02 | 63 | 1011.1 |
| 20260504210038 | 71 | 198 | 0.0 | 5.2 | 0.00 | 0.02 | 0.02 | 63 | 1011.3 |
| 20260504204537 | 69 | 207 | 0.0 | 6.1 | 0.00 | 0.02 | 0.02 | 64 | 1011.5 |
| 20260504203020 | 68 | 182 | 0.0 | 7.8 | 0.00 | 0.02 | 0.02 | 66 | 1011.8 |
| 20260504201521 | 67 | 196 | 3.5 | 7.8 | 0.00 | 0.02 | 0.02 | 68 | 1011.9 |
| 20260504200002 | 66 | 186 | 0.9 | 5.2 | 0.00 | 0.02 | 0.02 | 69 | 1012.0 |
| 20260504194501 | 65 | 169 | 0.0 | 6.1 | 0.00 | 0.02 | 0.02 | 71 | 1012.1 |
| 20260504193041 | 64 | 181 | 2.6 | 7.0 | 0.00 | 0.02 | 0.02 | 72 | 1012.2 |
| 20260504191548 | 64 | 225 | 0.0 | 7.0 | 0.00 | 0.02 | 0.02 | 74 | 1012.2 |
| 20260504190023 | 63 | 159 | 2.6 | 6.1 | 0.00 | 0.02 | 0.02 | 74 | 1012.4 |
| 20260504184524 | 62 | 186 | 2.6 | 6.1 | 0.00 | 0.02 | 0.02 | 75 | 1012.7 |
| 20260504183005 | 62 | 169 | 2.6 | 7.0 | 0.00 | 0.02 | 0.02 | 76 | 1012.6 |
| 20260504181505 | 62 | 256 | 1.7 | 4.3 | 0.00 | 0.02 | 0.02 | 76 | 1012.4 |
| 20260504180052 | 61 | 182 | 0.9 | 6.1 | 0.00 | 0.02 | 0.02 | 76 | 1012.6 |
| 20260504174546 | 61 | 161 | 2.6 | 6.1 | 0.00 | 0.02 | 0.02 | 78 | 1012.6 |
| 20260504173031 | 60 | 212 | 1.7 | 6.1 | 0.00 | 0.02 | 0.02 | 79 | 1012.6 |
| 20260504171530 | 59 | 194 | 1.7 | 7.0 | 0.00 | 0.02 | 0.02 | 81 | 1012.5 |
| 20260504150108 | 56 | 180 | 2.6 | 6.1 | 0.00 | 0.02 | 0.02 | 88 | 1011.8 |
| 20260504120110 | 57 | 160 | 1.7 | 7.8 | 0.00 | 0.02 | 0.02 | 82 | 1009.5 |
| 20260504081500 | 64 | 342 | 0.0 | 0.0 | 0.00 | 0.02 | 0.02 | 63 | 1007.1 |